SSR119 WIII-WARR

Flight info

Callsign SSR119
Flight time N/A
Altitude 41000
Route CA2C CA T3 BA BA1C
Aircraft A333/H-SDE3GHIJ2J3J5M1RVWXY/LB2D1

Departure

Time 2026-04-28 16:17
Airport Soekarno-Hatta International Airport (WIII)

Arrival

Time N/A
Airport Juanda International Airport (WARR)
Time Latitude Longitude Altitude Speed Heading
2026-04-28 15:49 -6.12142 106.65853 36 ft 0 kts 68°
2026-04-28 15:54 -6.12142 106.65852 36 ft 0 kts 68°
2026-04-28 16:00 -6.12142 106.65853 36 ft 0 kts 68°
2026-04-28 16:01 -6.12142 106.65852 37 ft 0 kts 69°
2026-04-28 16:01 -6.12144 106.65849 37 ft 0 kts 71°
2026-04-28 16:02 -6.12147 106.65835 35 ft 2 kts 81°
2026-04-28 16:02 -6.12149 106.65827 35 ft 0 kts 86°
2026-04-28 16:02 -6.12148 106.65815 35 ft 3 kts 102°
2026-04-28 16:02 -6.12141 106.65798 32 ft 3 kts 80°
2026-04-28 16:03 -6.12149 106.65791 33 ft 0 kts 323°
2026-04-28 16:03 -6.12141 106.65784 32 ft 3 kts 321°
2026-04-28 16:03 -6.12120 106.65764 35 ft 5 kts 314°
2026-04-28 16:03 -6.12091 106.65728 36 ft 8 kts 304°
2026-04-28 16:04 -6.12074 106.65706 36 ft 0 kts 324°
2026-04-28 16:05 -6.12068 106.65703 36 ft 2 kts 328°
2026-04-28 16:05 -6.12057 106.65700 36 ft 3 kts 339°
2026-04-28 16:05 -6.12030 106.65689 36 ft 5 kts 338°
2026-04-28 16:06 -6.11988 106.65675 36 ft 8 kts 346°
2026-04-28 16:06 -6.11930 106.65664 36 ft 9 kts 355°
2026-04-28 16:06 -6.11863 106.65650 36 ft 11 kts 343°
2026-04-28 16:06 -6.11784 106.65619 36 ft 13 kts 337°
2026-04-28 16:07 -6.11714 106.65636 36 ft 11 kts 43°
2026-04-28 16:07 -6.11666 106.65710 35 ft 14 kts 63°
2026-04-28 16:07 -6.11596 106.65910 36 ft 17 kts 69°
2026-04-28 16:08 -6.11539 106.66037 36 ft 22 kts 66°
2026-04-28 16:08 -6.11474 106.66195 36 ft 27 kts 68°
2026-04-28 16:08 -6.11401 106.66377 36 ft 29 kts 68°
2026-04-28 16:09 -6.11245 106.66759 35 ft 30 kts 68°
2026-04-28 16:09 -6.11166 106.66959 34 ft 31 kts 69°
2026-04-28 16:09 -6.11109 106.67170 33 ft 32 kts 77°
2026-04-28 16:10 -6.11304 106.67448 34 ft 27 kts 158°
2026-04-28 16:10 -6.11480 106.67519 35 ft 27 kts 158°
2026-04-28 16:10 -6.11824 106.67662 34 ft 25 kts 161°
2026-04-28 16:11 -6.12145 106.67780 44 ft 21 kts 157°
2026-04-28 16:11 -6.12405 106.67860 43 ft 23 kts 180°
2026-04-28 16:12 -6.12690 106.67689 39 ft 26 kts 238°
2026-04-28 16:12 -6.12782 106.67530 41 ft 26 kts 240°
2026-04-28 16:13 -6.12879 106.67433 41 ft 0 kts 188°
2026-04-28 16:14 -6.12917 106.67429 40 ft 8 kts 187°
2026-04-28 16:14 -6.13051 106.67362 39 ft 13 kts 235°
2026-04-28 16:15 -6.13062 106.67345 39 ft 0 kts 239°
2026-04-28 16:16 -6.13135 106.67213 39 ft 46 kts 241°
2026-04-28 16:17 -6.13219 106.66943 44 ft 60 kts 255°
2026-04-28 16:17 -6.13450 106.66347 44 ft 123 kts 247°
2026-04-28 16:17 -6.13852 106.65369 142 ft 172 kts 245°
2026-04-28 16:17 -6.14307 106.64244 924 ft 173 kts 245°
2026-04-28 16:18 -6.14762 106.63146 1877 ft 169 kts 245°
2026-04-28 16:18 -6.15236 106.61996 2349 ft 192 kts 245°
2026-04-28 16:18 -6.15789 106.60653 2688 ft 222 kts 245°
2026-04-28 16:18 -6.16401 106.59153 3272 ft 240 kts 246°
2026-04-28 16:19 -6.17035 106.57589 4140 ft 244 kts 246°
2026-04-28 16:19 -6.17668 106.56016 5051 ft 247 kts 246°
2026-04-28 16:19 -6.18315 106.54401 5965 ft 251 kts 246°
2026-04-28 16:19 -6.19072 106.52814 6839 ft 253 kts 233°
2026-04-28 16:20 -6.20379 106.51661 7693 ft 253 kts 200°
2026-04-28 16:20 -6.22085 106.51413 8554 ft 250 kts 167°
2026-04-28 16:20 -6.23757 106.51909 9436 ft 252 kts 155°
2026-04-28 16:20 -6.25336 106.52679 10260 ft 253 kts 142°
2026-04-28 16:21 -6.26551 106.53934 11042 ft 253 kts 117°
2026-04-28 16:21 -6.27073 106.55614 11813 ft 255 kts 91°
2026-04-28 16:21 -6.26742 106.57367 12581 ft 260 kts 64°
2026-04-28 16:21 -6.25787 106.58934 13343 ft 265 kts 54°
2026-04-28 16:22 -6.24683 106.60437 14067 ft 269 kts 53°
2026-04-28 16:22 -6.23557 106.61950 14742 ft 272 kts 53°
2026-04-28 16:22 -6.22437 106.63477 15428 ft 276 kts 53°
2026-04-28 16:22 -6.21300 106.65043 16104 ft 279 kts 54°
2026-04-28 16:23 -6.20156 106.66633 16782 ft 283 kts 55°
2026-04-28 16:23 -6.19190 106.68363 17412 ft 286 kts 69°
2026-04-28 16:23 -6.18806 106.70329 18039 ft 291 kts 88°
2026-04-28 16:23 -6.19155 106.72383 18283 ft 309 kts 108°
2026-04-28 16:24 -6.20043 106.74407 18565 ft 324 kts 114°
2026-04-28 16:24 -6.21054 106.76440 19057 ft 330 kts 115°
2026-04-28 16:24 -6.22091 106.78514 19634 ft 334 kts 115°
2026-04-28 16:24 -6.23124 106.80603 20203 ft 337 kts 115°
2026-04-28 16:25 -6.24164 106.82721 20803 ft 339 kts 115°
2026-04-28 16:25 -6.25208 106.84859 21404 ft 342 kts 115°
2026-04-28 16:25 -6.26182 106.86858 21975 ft 344 kts 115°